Back to catalog

STARLINK-34189

AliveCommunicationsVLEO
NORAD 64121·PAYLOAD·🇺🇸 United States

Launched May 23, 2025 from Vandenberg Space Force Base

Loading…

Next Passes (next 24 hours)

TLE

FreshSource: CelesTrak SupGP

Epoch: Sep 14, 2026, 14:24 UTC

1 64121C 25110AB  26257.60048611 -.00027034  00000+0 -86963-3 0  2570
2 64121  53.1589 229.2725 0001496  88.7237 347.0133 15.31704417    16

Track STARLINK-34189 in real time with AllMySat

Download on the App Store